Location: Praha
(50.0830°N, 14.4670°E)
Time: 03:33:01
(UTC+02:00)

ISS - Pass Details

Date: 14 May 2024
Orbit: 409 x 414 km, 51.6° (Epoch: 23 May)

Event Time Altitude Azimuth Distance (km) Brightness Sun altitude
Rises 23:31:27 0° 275° (W) 2,349 0.4 -18.4°
Reaches altitude 10° 23:33:34 10° 278° (W) 1,485 -0.6 -18.5°
Maximum altitude 23:36:53 64° 1° (N) 461 -3.4 -18.7°
Enters shadow 23:38:51 22° 78° (ENE) 957 -2.1 -18.8°
